Simultaneous Nadir Overpasses (SNOs) Predictions

Prediction of SNOs between NOAA-19 and NPP Satellite Orbit:

Table of predicted SNOs for the next 14.0 days since TLE Epoch: 8/28/2015
Index Date (NOAA-19) Time (NOAA-19) Lat,Lon (NOAA-19) SZA (NOAA-19 ) Date (NPP) Time (NPP) Lat,Lon (NPP) SZA (NPP ) Distance(km) Time Diff (sec)
1 09/01/2015 06:07:32 -81.04,-144.91 103.71 09/01/2015 06:08:38 -81.03,-144.73 103.78 3.22 66
2 09/01/2015 06:58:29 81.04, 22.43 76.29 09/01/2015 06:59:24 81.05, 22.26 76.29 2.93 55
3 09/01/2015 07:49:34 -81.04,-170.22 103.71 09/01/2015 07:50:08 -81.03,-170.17 103.74 0.98 34
4 09/01/2015 08:40:31 81.04, -2.88 76.29 09/01/2015 08:40:53 81.03, -2.81 76.27 1.38 22
5 09/01/2015 09:31:36 -81.04, 164.47 103.72 09/01/2015 09:31:38 -81.04, 164.39 103.71 1.43 2
6 09/01/2015 10:22:33 81.04, -28.18 76.29 09/01/2015 10:22:23 81.04, -28.25 76.30 1.16 10
7 09/01/2015 11:13:39 -81.04, 138.78 103.67 09/01/2015 11:13:08 -81.04, 138.95 103.67 2.89 31
8 09/01/2015 12:04:36 81.04, -53.87 76.34 09/01/2015 12:03:53 81.04, -53.69 76.34 3.09 43
9 09/01/2015 12:55:41 -81.04, 113.47 103.67 09/01/2015 12:54:38 -81.04, 113.51 103.64 0.85 63




NCC Satellite Simultaneous Nadir Overpasses (SNOs) Prediction Service
